| time (UTC) | temp F | wind direction | speed knots | gust knots | rain 1hr in | rain 24hr in | rain mn in | humidity % | barometer mb |
| 20260902130633 | 61 | 157 | 0.9 | 2.6 | 0.00 | 0.14 | 0.00 | 84 | 1025.5 |
| 20260902120734 | 60 | 157 | 0.0 | 0.0 | 0.00 | 0.25 | 0.00 | 84 | 1025.7 |
| 20260902115734 | 60 | 157 | 0.0 | 0.0 | 0.00 | 0.31 | 0.00 | 85 | 1025.7 |
| 20260902114734 | 59 | 157 | 0.0 | 0.0 | 0.00 | 0.34 | 0.00 | 85 | 1025.7 |
| 20260902113832 | 59 | 157 | 0.0 | 0.0 | 0.00 | 0.38 | 0.00 | 85 | 1025.7 |
| 20260902112835 | 59 | 157 | 0.0 | 0.0 | 0.00 | 0.44 | 0.00 | 85 | 1025.9 |
| 20260902105833 | 59 | 157 | 0.0 | 0.0 | 0.00 | 0.46 | 0.00 | 85 | 1025.6 |
| 20260902105749 | 59 | 157 | 0.0 | 0.0 | 0.00 | 0.46 | 0.00 | 85 | 1025.5 |
| 20260902104832 | 59 | 157 | 0.0 | 0.0 | 0.00 | 0.46 | 0.00 | 84 | 1025.4 |
| 20260902102835 | 59 | 157 | 0.0 | 0.0 | 0.00 | 0.46 | 0.00 | 85 | 1025.4 |
| 20260902101735 | 59 | 157 | 0.0 | 0.0 | 0.00 | 0.46 | 0.00 | 84 | 1025.1 |
| 20260902100733 | 59 | 157 | 0.0 | 0.0 | 0.00 | 0.46 | 0.00 | 85 | 1025.1 |
| 20260902095734 | 59 | 157 | 0.0 | 0.0 | 0.00 | 0.46 | 0.00 | 85 | 1025.1 |
| 20260902095631 | 59 | 157 | 0.0 | 0.0 | 0.00 | 0.46 | 0.00 | 84 | 1025.0 |
| 20260902094633 | 59 | 157 | 0.0 | 0.0 | 0.00 | 0.46 | 0.00 | 84 | 1025.2 |
| 20260902093633 | 59 | 157 | 0.0 | 0.0 | 0.00 | 0.46 | 0.00 | 85 | 1025.1 |
| 20260902092637 | 59 | 157 | 0.0 | 0.0 | 0.00 | 0.46 | 0.00 | 84 | 1024.9 |
| 20260902092535 | 59 | 157 | 0.0 | 0.0 | 0.00 | 0.46 | 0.00 | 84 | 1025.0 |
| 20260902085632 | 59 | 157 | 0.0 | 0.0 | 0.00 | 0.46 | 0.00 | 85 | 1024.6 |
| 20260902084632 | 59 | 157 | 0.0 | 0.0 | 0.00 | 0.46 | 0.00 | 85 | 1024.8 |
| 20260902084535 | 59 | 157 | 0.0 | 0.0 | 0.00 | 0.46 | 0.00 | 84 | 1024.7 |
| 20260902083631 | 59 | 157 | 0.0 | 0.0 | 0.00 | 0.46 | 0.00 | 84 | 1024.8 |
| 20260902081632 | 59 | 157 | 0.0 | 0.0 | 0.00 | 0.46 | 0.00 | 84 | 1024.7 |
| 20260902081535 | 59 | 157 | 0.0 | 0.0 | 0.00 | 0.46 | 0.00 | 84 | 1024.7 |
| 20260902080550 | 59 | 157 | 0.0 | 0.0 | 0.00 | 0.46 | 0.00 | 83 | 1024.7 |
| 20260902075531 | 60 | 157 | 0.0 | 0.0 | 0.00 | 0.46 | 0.00 | 83 | 1024.7 |
| 20260902074534 | 60 | 157 | 0.0 | 0.0 | 0.00 | 0.46 | 0.00 | 84 | 1024.8 |
| 20260902073533 | 60 | 157 | 0.0 | 0.0 | 0.00 | 0.46 | 0.00 | 84 | 1024.8 |
| 20260902073434 | 60 | 157 | 0.0 | 0.0 | 0.00 | 0.46 | 0.00 | 83 | 1024.8 |
| 20260902072434 | 60 | 157 | 0.0 | 0.0 | 0.00 | 0.46 | 0.00 | 83 | 1024.9 |
| 20260902070436 | 60 | 157 | 0.0 | 0.0 | 0.00 | 0.46 | 0.00 | 84 | 1025.0 |
| 20260902065450 | 60 | 157 | 0.0 | 0.0 | 0.00 | 0.46 | 0.00 | 84 | 1025.0 |
| 20260902064536 | 60 | 157 | 0.0 | 0.0 | 0.00 | 0.46 | 0.00 | 84 | 1024.8 |
| 20260902064449 | 60 | 157 | 0.0 | 0.0 | 0.00 | 0.46 | 0.00 | 83 | 1024.8 |
| 20260902063532 | 60 | 157 | 0.0 | 0.0 | 0.00 | 0.46 | 0.00 | 84 | 1024.7 |
| 20260902062533 | 60 | 157 | 0.0 | 0.0 | 0.00 | 0.46 | 0.00 | 84 | 1024.5 |
| 20260902062434 | 60 | 157 | 0.0 | 0.0 | 0.00 | 0.46 | 0.00 | 84 | 1024.4 |
| 20260902055435 | 60 | 157 | 0.0 | 0.0 | 0.00 | 0.46 | 0.00 | 84 | 1024.8 |
| 20260902054434 | 60 | 157 | 0.0 | 0.0 | 0.00 | 0.46 | 0.00 | 84 | 1024.5 |
| 20260902053433 | 60 | 157 | 0.0 | 0.0 | 0.00 | 0.46 | 0.00 | 84 | 1024.5 |
| 20260902052432 | 60 | 157 | 0.0 | 0.0 | 0.00 | 0.46 | 0.00 | 84 | 1024.5 |
| 20260902051432 | 60 | 157 | 0.0 | 0.0 | 0.00 | 0.46 | 0.00 | 83 | 1024.3 |
| 20260902050435 | 60 | 157 | 0.0 | 0.0 | 0.00 | 0.46 | 0.00 | 84 | 1024.3 |
| 20260902045533 | 60 | 157 | 0.0 | 0.0 | 0.00 | 0.46 | 0.00 | 84 | 1024.1 |
| 20260902044532 | 60 | 157 | 0.0 | 0.0 | 0.00 | 0.46 | 0.00 | 84 | 1023.9 |
| 20260902043535 | 60 | 157 | 0.0 | 0.0 | 0.00 | 0.46 | 0.00 | 83 | 1023.8 |
| 20260902043449 | 60 | 157 | 0.0 | 0.0 | 0.00 | 0.46 | 0.00 | 83 | 1023.9 |
| 20260902042435 | 60 | 157 | 0.0 | 0.0 | 0.00 | 0.46 | 0.00 | 84 | 1023.7 |
| 20260902041434 | 60 | 157 | 0.0 | 0.0 | 0.00 | 0.46 | 0.00 | 84 | 1023.6 |
| 20260902040532 | 60 | 157 | 0.0 | 0.0 | 0.00 | 0.46 | 0.00 | 83 | 1023.5 |
| 20260902033636 | 60 | 157 | 0.0 | 0.0 | 0.00 | 0.46 | 0.46 | 83 | 1023.2 |
| 20260902033541 | 60 | 157 | 0.0 | 0.0 | 0.00 | 0.46 | 0.46 | 84 | 1023.1 |
| 20260902032553 | 60 | 157 | 0.0 | 0.0 | 0.00 | 0.46 | 0.46 | 84 | 1023.1 |
| 20260902032439 | 60 | 157 | 0.0 | 0.0 | 0.00 | 0.46 | 0.46 | 84 | 1023.2 |
| 20260902031538 | 60 | 157 | 0.0 | 0.0 | 0.00 | 0.46 | 0.46 | 83 | 1023.2 |
| 20260902030538 | 60 | 157 | 0.0 | 0.0 | 0.00 | 0.46 | 0.46 | 83 | 1022.9 |
| 20260902025539 | 60 | 157 | 0.0 | 0.0 | 0.00 | 0.46 | 0.46 | 84 | 1023.1 |
| 20260902024538 | 60 | 157 | 0.0 | 0.0 | 0.00 | 0.46 | 0.46 | 84 | 1023.3 |
| 20260902023540 | 60 | 157 | 0.0 | 0.0 | 0.00 | 0.46 | 0.46 | 84 | 1023.3 |
| 20260902022636 | 60 | 157 | 0.0 | 0.0 | 0.00 | 0.46 | 0.46 | 84 | 1023.5 |
| 20260902021640 | 60 | 157 | 0.0 | 0.0 | 0.00 | 0.46 | 0.46 | 84 | 1023.3 |
| 20260902020638 | 60 | 157 | 0.0 | 0.0 | 0.00 | 0.46 | 0.46 | 83 | 1023.2 |
| 20260902015639 | 60 | 157 | 0.0 | 0.0 | 0.00 | 0.46 | 0.46 | 83 | 1023.3 |
| 20260902013737 | 60 | 157 | 0.0 | 0.0 | 0.00 | 0.46 | 0.46 | 83 | 1023.3 |
| 20260902012837 | 60 | 157 | 0.0 | 0.0 | 0.00 | 0.46 | 0.46 | 83 | 1023.4 |
| 20260902011838 | 60 | 157 | 0.0 | 0.0 | 0.00 | 0.46 | 0.46 | 84 | 1023.4 |
| 20260902011736 | 60 | 157 | 0.0 | 0.0 | 0.00 | 0.46 | 0.46 | 84 | 1023.4 |
| 20260902010737 | 60 | 157 | 0.0 | 0.0 | 0.00 | 0.46 | 0.46 | 84 | 1023.3 |
| 20260902005737 | 60 | 157 | 0.0 | 0.0 | 0.00 | 0.46 | 0.46 | 84 | 1023.2 |
| 20260902004738 | 60 | 157 | 0.0 | 0.0 | 0.00 | 0.46 | 0.46 | 84 | 1023.1 |
| 20260902003837 | 60 | 157 | 0.0 | 0.0 | 0.00 | 0.46 | 0.46 | 84 | 1023.1 |
| 20260902001036 | 60 | 157 | 0.9 | 2.6 | 0.01 | 0.46 | 0.46 | 84 | 1022.8 |
| 20260902000937 | 60 | 157 | 0.0 | 0.0 | 0.01 | 0.46 | 0.46 | 84 | 1022.7 |
| 20260901235937 | 60 | 112 | 0.0 | 0.0 | 0.01 | 0.46 | 0.46 | 84 | 1022.5 |
| 20260901234939 | 61 | 202 | 0.0 | 0.0 | 0.01 | 0.46 | 0.46 | 84 | 1022.6 |
| 20260901233936 | 61 | 157 | 0.0 | 0.9 | 0.01 | 0.46 | 0.46 | 84 | 1022.5 |
| 20260901230938 | 62 | 112 | 0.0 | 0.0 | 0.00 | 0.45 | 0.45 | 83 | 1022.5 |
| 20260901230036 | 62 | 112 | 0.0 | 0.0 | 0.00 | 0.45 | 0.45 | 84 | 1022.4 |
| 20260901225056 | 62 | 112 | 0.0 | 0.0 | 0.00 | 0.45 | 0.45 | 84 | 1022.4 |
| 20260901224136 | 62 | 112 | 0.0 | 0.0 | 0.00 | 0.45 | 0.45 | 84 | 1022.2 |
| 20260901223137 | 62 | 112 | 0.0 | 0.0 | 0.00 | 0.45 | 0.45 | 84 | 1022.3 |
| 20260901222140 | 62 | 112 | 0.0 | 0.0 | 0.00 | 0.45 | 0.45 | 84 | 1022.2 |
| 20260901221138 | 62 | 112 | 0.0 | 0.0 | 0.01 | 0.45 | 0.45 | 83 | 1022.1 |
| 20260901221038 | 62 | 112 | 0.0 | 0.0 | 0.01 | 0.45 | 0.45 | 84 | 1022.0 |
| 20260901220137 | 62 | 112 | 0.0 | 0.0 | 0.01 | 0.45 | 0.45 | 83 | 1022.0 |
| 20260901214138 | 62 | 22 | 0.0 | 0.0 | 0.01 | 0.45 | 0.45 | 84 | 1022.0 |
| 20260901213139 | 62 | 22 | 0.0 | 0.0 | 0.01 | 0.45 | 0.45 | 84 | 1022.0 |
| 20260901212139 | 62 | 22 | 0.0 | 0.0 | 0.02 | 0.45 | 0.45 | 83 | 1021.8 |
| 20260901212036 | 62 | 22 | 0.0 | 0.0 | 0.02 | 0.45 | 0.45 | 84 | 1021.8 |
| 20260901211936 | 62 | 22 | 0.0 | 0.0 | 0.02 | 0.45 | 0.45 | 84 | 1021.8 |
| 20260901210037 | 62 | 22 | 0.0 | 0.0 | 0.02 | 0.44 | 0.44 | 83 | 1021.9 |
| 20260901205039 | 62 | 22 | 0.0 | 0.0 | 0.03 | 0.44 | 0.44 | 83 | 1021.8 |
| 20260901204938 | 62 | 22 | 0.0 | 0.0 | 0.03 | 0.44 | 0.44 | 83 | 1021.9 |
| 20260901203855 | 62 | 22 | 0.0 | 0.0 | 0.04 | 0.44 | 0.44 | 84 | 1021.6 |
| 20260901203753 | 62 | 22 | 0.0 | 0.0 | 0.04 | 0.44 | 0.44 | 84 | 1021.7 |
| 20260901202738 | 62 | 22 | 0.0 | 0.0 | 0.04 | 0.43 | 0.43 | 84 | 1021.6 |
| 20260901202636 | 62 | 22 | 0.0 | 0.0 | 0.05 | 0.43 | 0.43 | 83 | 1021.5 |
| 20260901202536 | 62 | 22 | 0.0 | 0.0 | 0.05 | 0.43 | 0.43 | 84 | 1021.6 |
| 20260901201538 | 61 | 22 | 0.0 | 0.0 | 0.05 | 0.43 | 0.43 | 84 | 1021.5 |
| 20260901194539 | 61 | 22 | 0.0 | 0.0 | 0.04 | 0.41 | 0.41 | 85 | 1021.5 |
| 20260901193553 | 61 | 22 | 0.0 | 0.0 | 0.04 | 0.40 | 0.40 | 84 | 1021.7 |
| 20260901192637 | 61 | 22 | 0.0 | 1.7 | 0.02 | 0.38 | 0.38 | 85 | 1021.5 |
| 20260901191638 | 61 | 337 | 0.0 | 0.0 | 0.02 | 0.38 | 0.38 | 85 | 1021.6 |
| 20260901190637 | 61 | 337 | 0.0 | 0.0 | 0.01 | 0.37 | 0.37 | 84 | 1021.7 |
| 20260901190553 | 61 | 337 | 0.0 | 0.0 | 0.01 | 0.37 | 0.37 | 84 | 1021.6 |
| 20260901185537 | 61 | 337 | 0.0 | 0.0 | 0.01 | 0.37 | 0.37 | 85 | 1021.5 |
| 20260901183539 | 60 | 337 | 0.0 | 0.0 | 0.01 | 0.36 | 0.36 | 85 | 1021.7 |
| 20260901181651 | 60 | 360 | 0.0 | 0.0 | 0.01 | 0.36 | 0.36 | 84 | 1021.7 |
| 20260901180639 | 60 | 360 | 0.0 | 0.0 | 0.02 | 0.36 | 0.36 | 85 | 1021.8 |
| 20260901174636 | 60 | 360 | 0.0 | 0.0 | 0.01 | 0.35 | 0.35 | 85 | 1021.7 |
| 20260901174541 | 60 | 360 | 0.0 | 0.0 | 0.01 | 0.35 | 0.35 | 84 | 1021.7 |
| 20260901173555 | 60 | 360 | 0.0 | 0.0 | 0.01 | 0.35 | 0.35 | 85 | 1021.6 |
| 20260901173436 | 60 | 360 | 0.0 | 0.0 | 0.01 | 0.35 | 0.35 | 85 | 1021.6 |
| 20260901172438 | 60 | 360 | 0.0 | 0.9 | 0.02 | 0.35 | 0.35 | 85 | 1021.6 |
| 20260901171439 | 60 | 180 | 0.0 | 0.0 | 0.01 | 0.34 | 0.34 | 84 | 1021.2 |
| 20260901170437 | 60 | 22 | 0.0 | 0.0 | 0.01 | 0.34 | 0.34 | 84 | 1021.2 |
| 20260901165437 | 60 | 180 | 0.9 | 1.7 | 0.02 | 0.34 | 0.34 | 84 | 1021.1 |
| 20260901165339 | 60 | 173 | 1.7 | 2.6 | 0.02 | 0.34 | 0.34 | 85 | 1021.1 |
| 20260901164339 | 59 | 22 | 0.0 | 0.9 | 0.02 | 0.34 | 0.34 | 85 | 1021.3 |
| 20260901160436 | 60 | 337 | 0.0 | 0.0 | 0.01 | 0.33 | 0.33 | 85 | 1021.7 |
| 20260901155437 | 60 | 337 | 0.0 | 0.0 | 0.00 | 0.32 | 0.32 | 85 | 1021.6 |
| 20260901155354 | 60 | 337 | 0.0 | 0.0 | 0.00 | 0.32 | 0.32 | 85 | 1021.6 |
| 20260901154437 | 60 | 315 | 0.0 | 0.9 | 0.00 | 0.32 | 0.32 | 85 | 1021.7 |
| 20260901153437 | 60 | 337 | 0.0 | 0.9 | 0.00 | 0.32 | 0.32 | 85 | 1021.5 |
| 20260901151438 | 60 | 22 | 0.0 | 0.9 | 0.00 | 0.32 | 0.32 | 84 | 1021.3 |
| 20260901150440 | 60 | 22 | 0.0 | 0.0 | 0.00 | 0.32 | 0.32 | 84 | 1021.3 |
| 20260901144539 | 60 | 337 | 0.0 | 0.0 | 0.00 | 0.32 | 0.32 | 85 | 1021.3 |
| 20260901143553 | 60 | 15 | 0.9 | 1.7 | 0.00 | 0.32 | 0.32 | 84 | 1021.4 |
| 20260901141651 | 60 | 315 | 0.0 | 0.0 | 0.00 | 0.32 | 0.32 | 85 | 1021.4 |
| 20260901140739 | 60 | 315 | 0.0 | 0.0 | 0.00 | 0.32 | 0.32 | 85 | 1021.5 |
| 20260901134837 | 60 | 315 | 0.0 | 0.0 | 0.00 | 0.32 | 0.32 | 86 | 1021.4 |
| 20260901133935 | 59 | 292 | 0.0 | 0.0 | 0.01 | 0.32 | 0.32 | 86 | 1021.4 |
| 20260901132936 | 60 | 292 | 0.0 | 0.0 | 0.03 | 0.32 | 0.32 | 86 | 1021.5 |
| 20260901131938 | 60 | 360 | 0.0 | 0.0 | 0.05 | 0.32 | 0.32 | 86 | 1021.5 |
| 20260901131839 | 60 | 360 | 0.0 | 0.0 | 0.05 | 0.32 | 0.32 | 86 | 1021.6 |
| 20260901130836 | 60 | 22 | 0.0 | 1.7 | 0.11 | 0.32 | 0.32 | 86 | 1021.4 |